Location: *
(49.7115°N, 15.0136°E)
Time: 19:09:05
(UTC+00:00)

STARLINK-1064 - Pass Details

Date: 27 February 2020
Orbit: 548 x 551 km, 53.0° (Epoch: 30 March)

Event Time Altitude Azimuth Distance (km) Brightness Sun altitude
Rises 18:16:01 0° 238° (WSW) 2,708 8.0 -16.6°
Reaches altitude 10° 18:18:15 10° 236° (SW) 1,817 7.0 -16.9°
Maximum altitude 18:22:22 71° 152° (SSE) 584 3.5 -17.6°
Enters shadow 18:23:45 40° 80° (E) 824 4.0 -17.8°
